History for Miami, FL

Saturday, January 12, 2013 — View Current Conditions

Jump to Data:

Date:
Airport Code:
Recently Viewed Airport Codes: KMIA
Daily Summary
  Actual Average Record
Temperature
Mean Temperature 77°F 68°F  
Max Temperature 82°F 76°F 83°F (1971)
Min Temperature 72°F 60°F 33°F (1982)
Degree Days
Heating Degree Days 0 2  
Month to date heating degree days 24  
Since 1 July heating degree days 61  
Cooling Degree Days 12 5  
Month to date cooling degree days 60  
Year to date cooling degree days 60  
Growing Degree Days 27 (Base 50)    
Moisture
Dew Point 66°F    
Average Humidity 69    
Maximum Humidity 84    
Minimum Humidity 49    
Precipitation
Precipitation 0.00 in 0.05 in 1.41 in (1961)
Month to date precipitation 0.61  
Year to date precipitation 0.61  
Snow
Snow 0.00 in in in ()
Month to date snowfall  
Since 1 July snowfall  
Snow Depth in    
Sea Level Pressure
Sea Level Pressure 30.14 in    
Wind
Wind Speed 11 mph (East)    
Max Wind Speed 16 mph    
Max Gust Speed mph    
Visibility 10 miles    
Events      
T = Trace of Precipitation, MM = Missing Value Source: NWS Daily Summary

Show full METARS

(help) - Comma Delimited File

Hourly Observations

Time(EST) Temperature Dew Point Humidity Sea Level Pressure Visibility Wind Direction Wind Speed Gust Speed Precipitation Events Conditions
12:53 AM 75.0°F 68.0°F 79% 30.16 in 10.0 miles East 13.8 mph - N/A   Mostly Cloudy
1:53 AM 73.9°F 68.0°F 82% 30.15 in 10.0 miles ESE 10.4 mph - N/A   Scattered Clouds
2:53 AM 73.0°F 66.9°F 81% 30.14 in 10.0 miles ESE 8.1 mph - N/A   Mostly Cloudy
3:53 AM 73.9°F 68.0°F 82% 30.13 in 10.0 miles East 8.1 mph - N/A   Mostly Cloudy
4:53 AM 73.0°F 66.9°F 81% 30.13 in 10.0 miles East 8.1 mph - N/A   Mostly Cloudy
5:53 AM 72.0°F 66.9°F 84% 30.14 in 10.0 miles East 4.6 mph - N/A   Mostly Cloudy
6:53 AM 73.0°F 66.0°F 79% 30.16 in 10.0 miles ESE 5.8 mph - N/A   Scattered Clouds
7:53 AM 73.9°F 66.9°F 79% 30.17 in 10.0 miles East 5.8 mph - N/A   Scattered Clouds
8:53 AM 75.0°F 66.9°F 76% 30.18 in 10.0 miles ESE 8.1 mph - N/A   Scattered Clouds
9:53 AM 80.1°F 66.9°F 64% 30.19 in 10.0 miles East 15.0 mph - N/A   Mostly Cloudy
10:53 AM 80.1°F 64.9°F 60% 30.19 in 10.0 miles East 15.0 mph - N/A   Mostly Cloudy
11:53 AM 80.1°F 64.9°F 60% 30.15 in 10.0 miles ESE 13.8 mph - N/A   Partly Cloudy
12:53 PM 81.0°F 64.9°F 58% 30.13 in 10.0 miles East 15.0 mph - N/A   Scattered Clouds
1:53 PM 81.0°F 64.9°F 58% 30.12 in 10.0 miles East 13.8 mph - N/A   Scattered Clouds
2:53 PM 79.0°F 63.0°F 58% 30.10 in 10.0 miles East 16.1 mph - N/A   Scattered Clouds
3:53 PM 77.0°F 64.0°F 64% 30.11 in 10.0 miles East 13.8 mph - N/A   Scattered Clouds
4:53 PM 78.1°F 63.0°F 60% 30.11 in 10.0 miles ESE 11.5 mph - N/A   Scattered Clouds
5:53 PM 75.0°F 63.0°F 66% 30.12 in 10.0 miles East 13.8 mph - N/A   Partly Cloudy
6:53 PM 75.9°F 64.9°F 69% 30.13 in 10.0 miles ESE 9.2 mph - N/A   Partly Cloudy
7:53 PM 75.2°F 64.4°F 69% 30.13 in 10.0 miles ENE 9.2 mph - N/A   Scattered Clouds
8:53 PM 73.9°F 64.9°F 73% 30.14 in 10.0 miles East 6.9 mph - N/A   Partly Cloudy
9:53 PM 73.9°F 66.0°F 76% 30.13 in 10.0 miles East 8.1 mph - N/A   Scattered Clouds
10:53 PM 73.9°F 64.9°F 73% 30.12 in 10.0 miles East 11.5 mph - N/A   Scattered Clouds
11:53 PM 73.0°F 66.0°F 79% 30.11 in 10.0 miles East 9.2 mph - N/A   Scattered Clouds